Total_Precipitation_Accumulation
1.49 1.56 1.74 2.13 2.35 1.86 1.38 0.92 0.68 0.65 0.61 0.44 0.32 0.26 0.45 0.84 1.18 1.35 1.18 1.03 0.73 0.58 0.49 0.65 0.95 0.96 0.85 0.80 0.80 0.87 0.86 0.93 0.86 0.80 0.69 0.60 0.52 0.45 0.37 0.29 0.28 0.28 0.25 0.24 0.26 0.38 0.39 0.36 0.43
1.02 1.75 2.15 2.58 2.08 1.41 1.19 0.85 0.71 0.61 0.46 0.36 0.25 0.23 0.36 0.41 0.40 0.57 1.08 1.11 0.69 0.61 0.58 0.64 0.87 0.91 0.87 0.84 0.88 0.97 0.97 1.05 1.01 0.84 0.68 0.55 0.54 0.56 0.47 0.41 0.48 0.35 0.26 0.25 0.29 0.38 0.42 0.40 0.43
1.12 1.98 2.60 2.61 1.54 1.22 1.17 0.89 0.67 0.51 0.33 0.29 0.24 0.20 0.36 0.47 0.53 0.73 1.16 0.94 0.73 0.67 0.63 0.83 1.04 1.01 0.96 0.90 1.03 1.12 1.11 1.15 1.01 0.75 0.58 0.54 0.58 0.64 0.66 0.64 0.61 0.40 0.31 0.28 0.31 0.38 0.43 0.40 0.39
1.35 2.14 2.31 1.91 1.40 1.09 0.96 0.84 0.53 0.44 0.32 0.19 0.21 0.25 0.27 0.42 0.54 0.75 0.84 0.72 0.66 0.68 0.66 0.85 1.07 1.06 1.03 1.00 1.10 1.19 1.26 1.24 1.12 0.83 0.65 0.63 0.71 0.72 0.71 0.76 0.62 0.51 0.44 0.37 0.39 0.43 0.45 0.40 0.38
1.65 2.26 2.09 1.64 1.40 1.07 0.82 0.63 0.46 0.40 0.34 0.25 0.21 0.36 0.42 0.49 0.61 0.71 0.73 0.71 0.63 0.66 0.60 0.65 0.87 0.96 0.98 1.02 1.19 1.27 1.31 1.33 1.24 1.00 0.84 0.75 0.72 0.73 0.75 0.80 0.67 0.60 0.53 0.51 0.53 0.52 0.49 0.47 0.45
1.89 1.99 1.99 1.62 1.38 1.11 0.99 0.69 0.53 0.38 0.29 0.29 0.30 0.43 0.49 0.54 0.66 0.80 0.81 0.88 0.88 0.83 0.71 0.62 0.72 0.82 0.88 0.95 1.09 1.17 1.21 1.21 1.17 1.01 0.88 0.81 0.77 0.74 0.81 0.87 0.76 0.69 0.61 0.56 0.57 0.57 0.56 0.54 0.50
1.78 1.83 1.73 1.26 1.31 1.38 0.99 0.58 0.53 0.42 0.39 0.34 0.29 0.48 0.60 0.67 0.69 0.78 0.89 0.98 1.05 1.00 0.90 0.72 0.68 0.75 0.89 1.02 1.04 1.04 1.04 1.06 1.04 0.95 0.91 0.85 0.81 0.74 0.75 0.78 0.72 0.71 0.72 0.68 0.62 0.60 0.59 0.55 0.53
1.34 1.38 1.27 1.15 1.29 1.51 0.85 0.49 0.38 0.36 0.35 0.31 0.29 0.53 0.67 0.60 0.65 0.79 1.05 1.19 1.30 1.21 1.02 0.81 0.70 0.71 0.75 0.79 0.91 1.01 1.05 1.05 1.04 0.93 0.85 0.80 0.75 0.67 0.68 0.64 0.61 0.67 0.77 0.84 0.76 0.67 0.63 0.58 0.53
1.26 1.44 1.51 1.48 1.22 1.09 0.59 0.45 0.36 0.27 0.36 0.40 0.32 0.35 0.41 0.42 0.57 0.75 0.90 1.03 1.16 1.03 0.94 0.95 0.91 0.87 0.86 0.79 0.83 1.01 1.10 1.11 1.02 0.95 0.89 0.81 0.62 0.53 0.58 0.55 0.65 0.74 0.88 0.94 0.91 0.83 0.71 0.62 0.53
1.26 1.50 1.48 1.08 0.80 0.66 0.45 0.39 0.35 0.34 0.42 0.41 0.34 0.34 0.44 0.44 0.59 0.73 0.76 0.80 0.76 0.74 0.74 0.79 0.85 0.93 0.95 0.85 1.04 1.27 1.16 1.03 0.83 0.87 0.79 0.76 0.71 0.68 0.56 0.58 0.74 0.87 0.92 0.90 0.93 0.94 0.80 0.64 0.47
1.02 1.17 0.94 0.77 0.58 0.44 0.42 0.42 0.34 0.37 0.46 0.41 0.37 0.36 0.45 0.51 0.56 0.58 0.61 0.67 0.63 0.65 0.63 0.63 0.69 0.78 0.87 0.99 1.20 1.51 1.55 1.33 1.15 0.97 0.90 0.86 0.76 0.68 0.62 0.61 0.67 0.73 0.76 0.67 0.72 0.76 0.63 0.53 0.51
0.83 0.70 0.63 0.69 0.56 0.44 0.41 0.40 0.34 0.30 0.34 0.31 0.29 0.33 0.44 0.57 0.65 0.57 0.51 0.51 0.52 0.53 0.57 0.49 0.46 0.58 0.68 0.79 0.91 1.20 1.27 1.21 1.08 0.91 0.84 0.90 0.85 0.75 0.71 0.68 0.72 0.73 0.71 0.77 0.79 0.83 0.75 0.60 0.53
0.91 0.73 0.56 0.53 0.53 0.47 0.37 0.40 0.38 0.27 0.24 0.21 0.25 0.36 0.48 0.54 0.54 0.49 0.44 0.46 0.49 0.57 0.60 0.54 0.45 0.46 0.50 0.55 0.62 0.76 0.92 1.03 1.03 0.99 0.83 0.82 0.81 0.76 0.78 0.73 0.77 0.69 0.67 0.74 0.81 0.81 0.82 0.74 0.61
0.71 0.63 0.63 0.57 0.49 0.41 0.38 0.32 0.34 0.32 0.27 0.24 0.26 0.38 0.44 0.43 0.45 0.51 0.49 0.50 0.47 0.51 0.63 0.62 0.52 0.48 0.50 0.47 0.47 0.48 0.61 0.76 0.92 0.94 0.83 0.85 0.86 0.81 0.86 0.83 0.82 0.79 0.73 0.75 0.90 0.84 0.88 0.86 0.79
0.61 0.70 0.67 0.54 0.49 0.43 0.40 0.41 0.31 0.32 0.31 0.31 0.32 0.34 0.39 0.38 0.41 0.50 0.51 0.48 0.45 0.45 0.50 0.57 0.54 0.56 0.60 0.59 0.59 0.49 0.52 0.59 0.73 0.85 0.84 0.90 0.85 0.77 0.82 0.85 0.82 0.81 0.82 0.82 0.87 0.88 0.93 0.84 0.78
0.68 0.77 0.93 0.70 0.61 0.57 0.51 0.48 0.31 0.35 0.33 0.37 0.38 0.36 0.37 0.36 0.38 0.45 0.48 0.47 0.47 0.47 0.50 0.54 0.56 0.62 0.68 0.74 0.75 0.69 0.74 0.76 0.77 0.92 0.89 0.84 0.87 0.84 0.84 0.90 0.91 0.95 0.98 0.95 0.96 0.99 1.00 0.94 0.91
0.81 0.77 0.72 0.64 0.51 0.50 0.43 0.39 0.33 0.35 0.33 0.34 0.34 0.31 0.29 0.27 0.28 0.34 0.39 0.41 0.42 0.43 0.44 0.48 0.56 0.61 0.64 0.72 0.85 0.98 1.02 1.02 0.98 1.01 0.97 0.87 0.85 0.91 1.03 1.06 1.11 1.09 1.10 1.12 1.08 1.09 1.02 1.00 0.99
0.87 0.57 0.40 0.39 0.41 0.41 0.32 0.30 0.30 0.31 0.30 0.27 0.22 0.23 0.22 0.21 0.21 0.24 0.26 0.29 0.32 0.33 0.36 0.41 0.49 0.65 0.79 0.87 0.92 1.07 1.13 1.21 1.30 1.35 1.22 1.09 1.10 1.22 1.36 1.45 1.40 1.38 1.37 1.35 1.30 1.38 1.27 1.08 1.05
0.61 0.46 0.35 0.32 0.32 0.31 0.26 0.22 0.23 0.23 0.23 0.20 0.16 0.14 0.16 0.16 0.14 0.15 0.16 0.18 0.20 0.22 0.27 0.33 0.39 0.55 0.69 0.79 0.91 1.10 1.28 1.46 1.62 1.74 1.63 1.49 1.44 1.61 1.72 1.65 1.73 1.76 1.62 1.61 1.65 1.71 1.65 1.39 1.24
0.48 0.41 0.33 0.26 0.21 0.17 0.15 0.15 0.16 0.16 0.15 0.13 0.12 0.11 0.11 0.11 0.10 0.08 0.07 0.09 0.11 0.13 0.17 0.23 0.30 0.42 0.55 0.70 0.93 1.15 1.45 1.54 1.63 1.77 1.82 1.76 1.69 1.84 1.88 1.95 2.02 2.05 2.03 1.99 1.87 1.95 2.02 1.77 1.53
0.32 0.32 0.31 0.27 0.19 0.13 0.11 0.12 0.12 0.13 0.12 0.10 0.09 0.10 0.12 0.10 0.08 0.06 0.05 0.06 0.09 0.10 0.11 0.17 0.29 0.44 0.66 0.88 1.19 1.49 1.73 1.81 1.86 1.81 1.88 1.97 2.02 2.08 2.10 2.16 2.21 2.20 2.05 2.04 2.13 2.23 2.53 2.32 1.97
0.31 0.21 0.16 0.15 0.16 0.14 0.14 0.24 0.14 0.13 0.17 0.15 0.13 0.13 0.15 0.13 0.09 0.07 0.07 0.07 0.09 0.11 0.15 0.25 0.41 0.62 0.89 1.23 1.57 1.81 2.04 2.14 1.99 1.97 2.01 2.03 1.98 2.01 2.12 2.13 2.13 2.09 2.02 2.08 2.14 2.18 2.54 2.70 2.38
0.19 0.15 0.12 0.12 0.13 0.11 0.08 0.13 0.16 0.18 0.25 0.23 0.19 0.20 0.20 0.19 0.15 0.13 0.14 0.15 0.19 0.25 0.32 0.48 0.71 1.01 1.28 1.51 1.69 1.91 2.04 2.06 2.04 2.00 2.00 1.93 1.91 1.87 1.91 1.93 2.01 2.04 2.07 2.12 2.27 2.37 2.60 2.62 2.59
0.12 0.11 0.12 0.12 0.14 0.13 0.08 0.14 0.23 0.26 0.26 0.24 0.22 0.21 0.18 0.18 0.19 0.21 0.23 0.29 0.36 0.40 0.54 0.72 0.90 1.18 1.35 1.47 1.59 1.79 1.93 1.97 2.00 1.98 1.99 1.98 1.95 1.85 1.79 1.76 1.82 1.94 2.11 2.16 2.24 2.36 2.60 2.70 2.76
0.10 0.14 0.21 0.23 0.25 0.22 0.16 0.27 0.37 0.34 0.28 0.22 0.22 0.23 0.20 0.23 0.27 0.29 0.38 0.52 0.60 0.64 0.72 0.86 0.95 1.12 1.22 1.27 1.37 1.51 1.58 1.65 1.71 1.70 1.66 1.61 1.57 1.56 1.58 1.66 1.75 1.88 2.01 2.09 2.20 2.33 2.38 2.48 2.72
0.08 0.12 0.29 0.34 0.32 0.27 0.26 0.47 0.51 0.37 0.30 0.27 0.24 0.22 0.25 0.34 0.43 0.54 0.68 0.77 0.84 0.85 0.81 0.83 0.95 1.00 0.98 1.01 1.02 1.14 1.23 1.30 1.38 1.39 1.38 1.41 1.44 1.45 1.38 1.42 1.53 1.76 1.96 2.04 2.13 2.15 2.12 2.16 2.35
0.06 0.09 0.16 0.26 0.24 0.24 0.33 0.61 0.61 0.38 0.32 0.28 0.25 0.26 0.33 0.47 0.66 0.89 1.07 1.18 1.26 1.17 0.98 0.84 0.84 0.83 0.80 0.86 0.90 0.95 1.05 1.09 1.12 1.16 1.13 1.22 1.26 1.24 1.19 1.21 1.25 1.37 1.61 1.87 2.03 1.98 1.90 1.86 2.01
0.07 0.12 0.22 0.38 0.43 0.38 0.45 0.66 0.68 0.51 0.41 0.35 0.36 0.46 0.62 0.82 1.09 1.34 1.59 1.70 1.68 1.49 1.22 0.94 0.79 0.74 0.70 0.73 0.78 0.85 0.89 0.90 0.89 0.93 0.89 0.96 1.04 1.04 1.04 1.03 1.08 1.22 1.32 1.53 1.77 1.87 1.82 1.79 1.84
0.12 0.21 0.29 0.42 0.49 0.58 0.69 0.85 0.74 0.69 0.64 0.61 0.68 0.86 1.07 1.34 1.53 1.66 1.81 1.86 1.60 1.42 1.17 0.92 0.77 0.79 0.79 0.78 0.78 0.79 0.76 0.75 0.74 0.74 0.71 0.73 0.79 0.80 0.83 0.99 1.04 1.12 1.21 1.38 1.64 1.82 1.83 1.76 1.76
0.25 0.38 0.53 0.75 0.71 0.69 0.86 0.96 0.76 0.71 0.79 0.83 0.94 1.00 1.10 1.25 1.27 1.35 1.41 1.36 1.32 1.27 1.10 0.94 0.85 0.85 0.88 0.88 0.87 0.78 0.70 0.67 0.67 0.64 0.57 0.57 0.56 0.55 0.67 0.81 0.85 0.89 0.94 1.13 1.43 1.62 1.66 1.63 1.54